SHT12K EGLL-EGNT

Flight info

Callsign SHT12K
Flight time N/A
Altitude 26000
Route ULTIB1J ULTIB T420 AKUPA UY250 RIMTO RIMTO2N
Aircraft A21N/M-SDE3FGHIJ1LRWXYZ/SB1G1

Departure

Time 2026-04-30 14:54
Airport London Heathrow Airport (EGLL)

Arrival

Time N/A
Airport Newcastle International Airport (EGNT)
Time Latitude Longitude Altitude Speed Heading
2026-04-30 14:17 51.47400 -0.48757 92 ft 0 kts 180°
2026-04-30 14:45 51.47422 -0.48757 92 ft 4 kts 180°
2026-04-30 14:45 51.47449 -0.48758 91 ft 3 kts 180°
2026-04-30 14:46 51.47470 -0.48760 92 ft 4 kts 159°
2026-04-30 14:46 51.47486 -0.48782 93 ft 4 kts 98°
2026-04-30 14:46 51.47486 -0.48822 92 ft 3 kts 90°
2026-04-30 14:46 51.47486 -0.48829 93 ft 0 kts 90°
2026-04-30 14:49 51.47486 -0.48822 92 ft 2 kts 90°
2026-04-30 14:49 51.47486 -0.48788 92 ft 5 kts 90°
2026-04-30 14:49 51.47487 -0.48721 92 ft 7 kts 90°
2026-04-30 14:50 51.47487 -0.48519 93 ft 6 kts 97°
2026-04-30 14:50 51.47451 -0.48475 91 ft 8 kts 173°
2026-04-30 14:51 51.47303 -0.48473 91 ft 13 kts 179°
2026-04-30 14:51 51.47203 -0.48471 95 ft 15 kts 179°
2026-04-30 14:51 51.47008 -0.48470 95 ft 14 kts 180°
2026-04-30 14:52 51.46900 -0.48469 95 ft 17 kts 180°
2026-04-30 14:52 51.46645 -0.48468 92 ft 20 kts 180°
2026-04-30 14:52 51.46537 -0.48468 92 ft 14 kts 180°
2026-04-30 14:53 51.46481 -0.48343 93 ft 13 kts 89°
2026-04-30 14:53 51.46483 -0.47897 92 ft 75 kts 91°
2026-04-30 14:54 51.46493 -0.45107 433 ft 147 kts 89°
2026-04-30 14:54 51.46580 -0.41649 1597 ft 167 kts 88°
2026-04-30 14:55 51.47908 -0.37926 2430 ft 235 kts 51°
2026-04-30 14:55 51.49050 -0.35898 3149 ft 251 kts 52°
2026-04-30 14:55 51.51399 -0.31540 5086 ft 264 kts 55°
2026-04-30 14:56 51.53099 -0.26355 6851 ft 270 kts 75°
2026-04-30 14:56 51.54341 -0.20554 8679 ft 279 kts 74°
2026-04-30 14:57 51.55353 -0.17823 9649 ft 290 kts 53°
2026-04-30 14:57 51.58983 -0.14364 11001 ft 336 kts 15°
2026-04-30 14:58 51.63835 -0.15595 12055 ft 375 kts 332°
2026-04-30 14:58 51.65896 -0.18174 12896 ft 379 kts 312°
2026-04-30 14:58 51.68070 -0.25807 14502 ft 380 kts 275°
2026-04-30 14:59 51.69982 -0.33795 15987 ft 394 kts 308°
2026-04-30 15:00 51.77191 -0.40017 18158 ft 406 kts 342°
2026-04-30 15:00 51.82423 -0.43672 19293 ft 415 kts 329°
2026-04-30 15:01 51.87419 -0.48583 20482 ft 424 kts 329°
2026-04-30 15:01 51.89091 -0.50220 20873 ft 426 kts 329°
2026-04-30 15:01 51.95082 -0.56073 22200 ft 437 kts 329°
2026-04-30 15:02 51.97701 -0.58632 22792 ft 440 kts 329°
2026-04-30 15:02 52.00320 -0.61193 23518 ft 440 kts 329°
2026-04-30 15:03 52.08146 -0.68867 25518 ft 436 kts 329°
2026-04-30 15:03 52.13348 -0.73989 26208 ft 433 kts 329°
2026-04-30 15:04 52.18445 -0.79023 26238 ft 427 kts 329°
2026-04-30 15:04 52.26068 -0.86570 26226 ft 427 kts 329°
2026-04-30 15:05 52.33645 -0.94103 26234 ft 425 kts 328°
2026-04-30 15:06 52.38676 -0.99123 26241 ft 425 kts 328°
2026-04-30 15:06 52.43771 -1.04219 26200 ft 429 kts 328°
2026-04-30 15:07 52.49137 -1.08408 26159 ft 427 kts 348°
2026-04-30 15:07 52.55011 -1.08797 26149 ft 422 kts
2026-04-30 15:08 52.60877 -1.08241 26136 ft 422 kts
2026-04-30 15:08 52.69669 -1.07539 26144 ft 422 kts
2026-04-30 15:09 52.75515 -1.07601 26222 ft 426 kts 353°
2026-04-30 15:09 52.81336 -1.09336 26229 ft 425 kts 351°
2026-04-30 15:10 52.87157 -1.11166 26232 ft 424 kts 351°
2026-04-30 15:11 52.98769 -1.14721 26235 ft 425 kts 351°
2026-04-30 15:11 53.04597 -1.16506 26238 ft 424 kts 351°
2026-04-30 15:12 53.13323 -1.19191 26247 ft 424 kts 351°
2026-04-30 15:13 53.19093 -1.20966 26254 ft 424 kts 351°
2026-04-30 15:14 53.30697 -1.24558 26253 ft 423 kts 351°
2026-04-30 15:14 53.39389 -1.27242 26264 ft 423 kts 350°
2026-04-30 15:16 53.53985 -1.29484 26263 ft 422 kts 357°
2026-04-30 15:17 53.64026 -1.35309 26282 ft 423 kts 327°
2026-04-30 15:18 53.76579 -1.48276 26286 ft 424 kts 328°
2026-04-30 15:19 53.84141 -1.55985 26290 ft 424 kts 328°